Regional Weather Roundup
Issued by NWS

Home | Current Version | Previous Version | Graphics & Text | Print | Product List | Glossary On
Versions: 1 2 3 4 5 6 7 8 9 10 11 12 13 14 15 16 17 18 19 20 21 22 23 24 25 26 27 28 29 30 31 32 33 34 35 36 37 38 39 40 41 42 43 44 45 46 47 48 49 50
000
ASUS45 KABQ 271301
RWRNM
NEW MEXICO REGIONAL WEATHER ROUNDUP
NATIONAL WEATHER SERVICE ALBUQUERQUE NM
600 AM MST MON FEB 27 2017

NOTE: "FAIR" MEANS FEW OR NO CLOUDS BELOW 12,000 FEET AGL WITH NO
       SIGNIFICANT WEATHER OR OBSTRUCTIONS TO VISION.

      THIS PRODUCT IS RELEASED AS TWO VERSIONS.  ONE VERSION NEAR
      THE TOP OF THE HOUR CONTAINING PRELIMINARY DATA FROM ALBUQUERQUE
      AND OTHER STATIONS.  A FINAL VERSION WITH ADDITIONAL DATA IS
      ISSUED ABOUT 10 MINUTES AFTER THE HOUR.

NMZ501-503-504-510>518-271400-
NORTHWEST PLATEAU/NORTHCENTRAL MOUNTAINS

CITY           SKY/WX    TMP DP  RH WIND       PRES   REMARKS
FARMINGTON     CLOUDY    33  21  61 NE5       29.85R WCI  29
LOS ALAMOS     CLOUDY    29  20  71 S6        29.90S WCI  22
SANTA FE       CLOUDY    31  21  66 CALM      29.90F
TAOS           CLOUDY    30  12  47 S7        29.89S WCI  23
ANGEL FIRE     LGT SNOW  24  19  80 SW18      29.84F WCI  10

$$
NMZ402-403-502-505>509-271400-
WESTCENTRAL MOUNTAINS/SOUTHWEST MOUNTAINS

CITY           SKY/WX    TMP DP  RH WIND       PRES   REMARKS
GALLUP         CLOUDY    35  22  58 SW16G23   29.91R WCI  25
GRANTS         FAIR      25  21  87 S3        29.92R
SILVER CITY    FAIR      32  24  73 N8        30.00R WCI  24

$$
NMZ407-409-411-412-271400-
SOUTHERN DESERTS

CITY           SKY/WX    TMP DP  RH WIND       PRES   REMARKS
DEMING         FAIR      31  24  75 W6        29.99R WCI  25
LAS CRUCES     FAIR      33  24  69 W3        29.99S
HOLLOMAN AFB   FAIR      43  21  41 S6        30.01R
ALAMOGORDO     FAIR      46  21  36 S8        29.98S
T OR C         FAIR      36  25  64 CALM      29.93R

$$
NMZ519>523-271400-
CENTRAL VALLEYS/CENTRAL HIGHLANDS

CITY           SKY/WX    TMP DP  RH WIND       PRES   REMARKS
ALBUQUERQUE    FAIR      31  23  72 E8        29.92S WCI  23
DOUBLE EAGLE   PTCLDY    25  19  80 S7        29.91F WCI  17
MORIARTY ARPT  FAIR      23  17  80 E5        29.92S WCI  16
CLINES CORNERS FAIR      26  19  74 W16       29.90R WCI  14
BELEN          FAIR      25  20  84 CALM      29.92F
SOCORRO        FAIR      28  22  78 SW3       29.94R

$$
NMZ524>526-539-540-271400-
SOUTHCENTRAL MOUNTAINS

CITY           SKY/WX    TMP DP  RH WIND       PRES   REMARKS
RUIDOSO        NOT AVBL

$$
NMZ527>531-271400-
NORTHEAST HIGHLANDS/NORTHEAST PLAINS

CITY           SKY/WX    TMP DP  RH WIND       PRES   REMARKS
LAS VEGAS      FAIR      31  16  54 SW21G28   29.79S WCI  18
RATON          FAIR      20   6  55 CALM      29.76S
CLAYTON        FAIR      28  16  60 SW12      29.79F WCI  18

$$
NMZ532>537-271400-
EASTCENTRAL PLAINS

CITY           SKY/WX    TMP DP  RH WIND       PRES   REMARKS
TUCUMCARI      FAIR      34  24  67 SW13      29.86R WCI  25
CANNON AFB     CLEAR     33  23  66 W5        29.90S WCI  29
CLOVIS AIRPORT FAIR      28  18  64 SW7       29.90S WCI  21

$$
NMZ028-029-538-271400-
SOUTHEAST PLAINS

CITY           SKY/WX    TMP DP  RH WIND       PRES   REMARKS
ROSWELL        FAIR      30  21  69 CALM        N/A
ARTESIA        FAIR      30  23  74 NW5       29.93R WCI  25
CARLSBAD       FAIR      36  23  59 NW3       29.92R
HOBBS          CLEAR     37  19  48 SW6       29.93S WCI  33


$$



USA.gov is the U.S. government's official web portal to all federal, state and local government web resources and services.